{"data":{"norad_id":44517,"epoch":"2026-05-25T03:52:35.862816Z","epoch_age_seconds":64178,"freshness":"FRESH","line1":"1 44517U 19057A   26145.16152619  .00000054  00000+0  84715-4 0  9999","line2":"2 44517  99.2056 157.1103 0014844 230.2911 129.6937 13.85943270340681","mean_motion":13.8594327,"eccentricity":0.0014844,"inclination_deg":99.2056,"raan_deg":157.1103,"arg_perigee_deg":230.2911,"mean_anomaly_deg":129.6937,"bstar":8.4715e-5,"rev_number":34068,"period_min":103.90035661416,"perigee_km":932.01475926573,"apogee_km":953.7494007104,"semimajor_km":7321.0190799881,"source":"CELESTRAK","updated_at":"2026-05-25T13:37:55.998584Z"}}